When you browse on this site, cookies collect data to enhance your experience and personalize the content and advertising you see.
Visit our Privacy Policy to learn more. By continuing to use the site, you agree to this use of cookies and data.
  • In Latvia
  • List of Countries
  • For 7 days
  • Water Temperature
  • Satellite Maps
  • Weather Map
  • Weather Widgets
  • user-avatar
    Login

    Hourly Weather Hatukay

    Today, 24 March, Sunday

    Time Temperature Precipitation Wind Pressure Humidity
    00:00 +1°C° 0 mm 3 mps 759 mmHg 71%
    01:00 +1°C° 0 mm 3 mps 759 mmHg 74%
    02:00 +1°C° 0 mm 3 mps 759 mmHg 76%
    03:00 0°C° 0 mm 3 mps 759 mmHg 78%
    04:00 0°C° 0.1 mm 4 mps 759 mmHg 78%
    05:00 0°C° 0.1 mm 4 mps 759 mmHg 78%
    06:00 +1°C° 0.1 mm 4 mps 759 mmHg 77%
    07:00 +1°C° 0.2 mm 4 mps 760 mmHg 79%
    08:00 +1°C° 0.2 mm 4 mps 760 mmHg 80%
    09:00 +3°C° 0.2 mm 4 mps 760 mmHg 81%
    10:00 +3°C° 0.1 mm 4 mps 760 mmHg 76%
    11:00 +4°C° 0.1 mm 4 mps 760 mmHg 70%
    12:00 +5°C° 0.1 mm 4 mps 760 mmHg 64%
    13:00 +5°C° 0.1 mm 4 mps 760 mmHg 62%
    14:00 +6°C° 0.1 mm 4 mps 760 mmHg 60%
    15:00 +6°C° 0.1 mm 5 mps 760 mmHg 58%
    16:00 +5°C° 0 mm 4 mps 760 mmHg 61%
    17:00 +5°C° 0 mm 4 mps 760 mmHg 64%
    18:00 +4°C° 0 mm 3 mps 760 mmHg 66%
    19:00 +3°C° 0 mm 3 mps 761 mmHg 69%
    20:00 +2°C° 0 mm 3 mps 761 mmHg 73%
    21:00 +2°C° 0 mm 2 mps 761 mmHg 76%
    22:00 +2°C° 0 mm 2 mps 761 mmHg 76%
    23:00 +1°C° 0 mm 2 mps 761 mmHg 77%

    Tomorrow, 25 March, Monday

    Time Temperature Precipitation Wind Pressure Humidity
    00:00 +1°C° 0 mm 2 mps 761 mmHg 78%
    01:00 +1°C° 0 mm 2 mps 761 mmHg 79%
    02:00 +1°C° 0 mm 2 mps 761 mmHg 80%
    03:00 -1°C° 0 mm 2 mps 761 mmHg 81%
    04:00 -1°C° 0 mm 2 mps 761 mmHg 82%
    05:00 -1°C° 0 mm 2 mps 761 mmHg 82%
    06:00 -1°C° 0 mm 2 mps 761 mmHg 83%
    07:00 +2°C° 0 mm 2 mps 761 mmHg 76%
    08:00 +3°C° 0 mm 2 mps 760 mmHg 70%
    09:00 +5°C° 0 mm 2 mps 760 mmHg 64%
    10:00 +6°C° 0 mm 2 mps 760 mmHg 60%
    11:00 +8°C° 0 mm 2 mps 760 mmHg 57%
    12:00 +9°C° 0 mm 2 mps 759 mmHg 54%
    13:00 +11°C° 0 mm 1 mps 759 mmHg 53%
    14:00 +11°C° 0 mm 1 mps 758 mmHg 52%
    15:00 +12°C° 0 mm 1 mps 758 mmHg 51%
    16:00 +11°C° 0 mm 1 mps 758 mmHg 55%
    17:00 +11°C° 0 mm 1 mps 758 mmHg 58%
    18:00 +10°C° 0 mm 1 mps 758 mmHg 62%
    19:00 +9°C° 0 mm 1 mps 758 mmHg 65%
    20:00 +8°C° 0 mm 1 mps 759 mmHg 67%
    21:00 +6°C° 0 mm 2 mps 759 mmHg 69%
    22:00 +6°C° 0 mm 2 mps 759 mmHg 71%
    23:00 +5°C° 0 mm 2 mps 759 mmHg 72%

    Day after tomorrow, 26 March, Tuesday

    Time Temperature Precipitation Wind Pressure Humidity
    00:00 +5°C° 0 mm 2 mps 759 mmHg 73%
    01:00 +4°C° 0 mm 2 mps 759 mmHg 74%
    02:00 +4°C° 0 mm 2 mps 759 mmHg 76%
    03:00 +4°C° 0 mm 2 mps 759 mmHg 77%
    04:00 +3°C° 0 mm 2 mps 759 mmHg 78%
    05:00 +3°C° 0 mm 2 mps 759 mmHg 79%
    06:00 +3°C° 0 mm 2 mps 759 mmHg 80%
    07:00 +4°C° 0 mm 2 mps 759 mmHg 75%
    08:00 +6°C° 0 mm 2 mps 759 mmHg 69%
    09:00 +8°C° 0 mm 2 mps 759 mmHg 64%
    10:00 +9°C° 0 mm 2 mps 758 mmHg 59%
    11:00 +12°C° 0 mm 2 mps 758 mmHg 54%
    12:00 +13°C° 0 mm 2 mps 758 mmHg 49%
    13:00 +14°C° 0 mm 2 mps 757 mmHg 47%
    14:00 +15°C° 0 mm 1 mps 757 mmHg 44%
    15:00 +16°C° 0 mm 1 mps 756 mmHg 42%
    16:00 +15°C° 0 mm 1 mps 756 mmHg 46%
    17:00 +14°C° 0 mm 1 mps 756 mmHg 49%
    18:00 +14°C° 0 mm 1 mps 756 mmHg 53%
    19:00 +12°C° 0 mm 1 mps 757 mmHg 55%
    20:00 +11°C° 0 mm 1 mps 757 mmHg 57%
    21:00 +9°C° 0 mm 2 mps 757 mmHg 59%
    22:00 +8°C° 0 mm 2 mps 757 mmHg 62%
    23:00 +8°C° 0 mm 2 mps 757 mmHg 65%

    27 March, Wednesday

    Time Temperature Precipitation Wind Pressure Humidity
    00:00 +7°C° 0 mm 2 mps 757 mmHg 68%
    01:00 +7°C° 0 mm 2 mps 757 mmHg 70%
    02:00 +6°C° 0 mm 2 mps 757 mmHg 73%
    03:00 +6°C° 0 mm 2 mps 757 mmHg 75%
    04:00 +6°C° 0 mm 2 mps 757 mmHg 76%
    05:00 +5°C° 0 mm 2 mps 758 mmHg 78%
    06:00 +5°C° 0 mm 2 mps 758 mmHg 79%
    07:00 +6°C° 0 mm 2 mps 758 mmHg 75%
    08:00 +8°C° 0 mm 2 mps 758 mmHg 70%
    09:00 +9°C° 0 mm 3 mps 759 mmHg 66%
    10:00 +10°C° 0 mm 3 mps 759 mmHg 67%
    11:00 +10°C° 0 mm 4 mps 759 mmHg 69%
    12:00 +11°C° 0 mm 4 mps 759 mmHg 70%
    13:00 +10°C° 0 mm 5 mps 759 mmHg 63%
    14:00 +12°C° 0 mm 5 mps 760 mmHg 56%
    15:00 +11°C° 0 mm 6 mps 760 mmHg 50%
    16:00 +10°C° 0 mm 6 mps 760 mmHg 49%
    17:00 +9°C° 0 mm 5 mps 761 mmHg 48%
    18:00 +7°C° 0 mm 5 mps 761 mmHg 47%
    19:00 +6°C° 0 mm 5 mps 762 mmHg 51%
    20:00 +5°C° 0 mm 4 mps 763 mmHg 55%
    21:00 +4°C° 0 mm 4 mps 764 mmHg 59%
    22:00 +3°C° 0 mm 3 mps 765 mmHg 57%
    23:00 +2°C° 0 mm 3 mps 765 mmHg 55%

    28 March, Thursday

    Time Temperature Precipitation Wind Pressure Humidity
    00:00 +2°C° 0 mm 2 mps 765 mmHg 53%
    01:00 +2°C° 0 mm 2 mps 766 mmHg 55%
    02:00 +2°C° 0 mm 2 mps 766 mmHg 57%
    03:00 +1°C° 0 mm 2 mps 766 mmHg 59%
    04:00 +2°C° 0 mm 1 mps 766 mmHg 59%
    05:00 +2°C° 0 mm 1 mps 767 mmHg 59%
    06:00 +1°C° 0 mm 1 mps 767 mmHg 58%
    07:00 +3°C° 0 mm 1 mps 767 mmHg 53%
    08:00 +5°C° 0 mm 1 mps 767 mmHg 47%
    09:00 +6°C° 0 mm 1 mps 768 mmHg 42%
    10:00 +6°C° 0 mm 2 mps 767 mmHg 40%
    11:00 +7°C° 0 mm 2 mps 767 mmHg 38%
    12:00 +8°C° 0 mm 3 mps 767 mmHg 36%
    13:00 +8°C° 0 mm 3 mps 767 mmHg 36%
    14:00 +8°C° 0 mm 3 mps 766 mmHg 36%
    15:00 +8°C° 0 mm 4 mps 766 mmHg 36%
    16:00 +8°C° 0 mm 3 mps 766 mmHg 40%
    17:00 +7°C° 0 mm 3 mps 766 mmHg 44%
    18:00 +7°C° 0 mm 3 mps 766 mmHg 48%
    19:00 +4°C° 0 mm 3 mps 767 mmHg 51%
    20:00 +3°C° 0 mm 3 mps 767 mmHg 54%
    21:00 +2°C° 0 mm 3 mps 767 mmHg 57%
    22:00 +1°C° 0 mm 3 mps 767 mmHg 58%
    23:00 +1°C° 0 mm 3 mps 767 mmHg 58%

    29 March, Friday

    Time Temperature Precipitation Wind Pressure Humidity
    00:00 +2°C° 0 mm 2 mps 767 mmHg 59%
    01:00 +1°C° 0 mm 2 mps 767 mmHg 60%
    02:00 +1°C° 0 mm 2 mps 767 mmHg 62%
    03:00 -1°C° 0 mm 2 mps 767 mmHg 63%
    04:00 -1°C° 0 mm 2 mps 767 mmHg 64%
    05:00 -1°C° 0 mm 2 mps 767 mmHg 66%
    06:00 +1°C° 0 mm 1 mps 767 mmHg 67%
    07:00 +3°C° 0 mm 1 mps 767 mmHg 61%
    08:00 +4°C° 0 mm 1 mps 767 mmHg 56%
    09:00 +6°C° 0 mm 1 mps 767 mmHg 50%
    10:00 +7°C° 0 mm 1 mps 766 mmHg 46%
    11:00 +7°C° 0 mm 2 mps 766 mmHg 42%
    12:00 +8°C° 0 mm 2 mps 765 mmHg 37%
    13:00 +9°C° 0 mm 2 mps 765 mmHg 37%
    14:00 +10°C° 0 mm 2 mps 765 mmHg 36%
    15:00 +10°C° 0 mm 3 mps 764 mmHg 35%
    16:00 +10°C° 0 mm 2 mps 764 mmHg 40%
    17:00 +9°C° 0 mm 2 mps 764 mmHg 45%
    18:00 +9°C° 0 mm 2 mps 764 mmHg 50%
    19:00 +7°C° 0 mm 2 mps 764 mmHg 52%
    20:00 +7°C° 0 mm 1 mps 764 mmHg 55%
    21:00 +6°C° 0 mm 1 mps 764 mmHg 58%
    22:00 +5°C° 0 mm 1 mps 764 mmHg 59%
    23:00 +5°C° 0 mm 1 mps 764 mmHg 60%
    Show more